User: anonymous
Location: Oshawa
(43.9000°N, 78.8670°W)
Time: 12:23:20
(UTC-04:00)
Language:

Altair - Orbit

View from above orbital plane
View from above orbital plane
View from above satellite
View from above satellite

Ground track
Ground track

The orbit data is extracted from the following two-line orbital elements,

1 00050U 60009B   14265.01637672 -.00000009  00000-0  71474-3 0  1123
2 00050 047.2298 144.6942 0113470 200.8787 158.7345 12.20083226414836
Epoch (UTC): 22 September 2014 00:23:34
Eccentricity: 0.0113470
inclination: 47.2298°
perigee height: 1502 km
apogee height: 1682 km
right ascension of ascending node: 144.6942°
argument of perigee: 200.8787°
revolutions per day: 12.20083226
mean anomaly at epoch: 158.7345°
orbit number at epoch: 41483

The dashed part of the orbit path shows where the satellite is in the earth's shadow,  

DLR